Tracking 33200 objects as of 18-Feb-2026
HD Live streaming from Space Station
objects crossing your sky now

STARLINK-5196

Track STARLINK-5196 now!
10-day predictions
STARLINK-5196 is classified as:


NORAD ID: 55319
Int'l Code: 2023-010BC
Perigee: 577.3 km
Apogee: 581.1 km
Inclination: 70.0 °
Period: 96.1 minutes
Semi major axis: 6950 km
RCS: Unknown
Launch date: January 19, 2023
Source: United States (US)
Launch site: AIR FORCE WESTERN TEST RANGE (AFWTR)
Your satellite tracking list
Your tracking list is empty




NASA's NSSDC Master Catalog

Two Line Element Set (TLE):
1 55319U 23010BC  26048.39678953 -.00000096  00000-0 -27508-6 0  9994
2 55319  70.0001  55.5809 0002777 266.6387  93.4454 14.98330874171607
Source of the keplerian elements: AFSPC